When you browse on this site, cookies collect data to enhance your experience and personalize the content and advertising you see.
Visit our Privacy Policy to learn more. By continuing to use the site, you agree to this use of cookies and data.
  • In Portugal
  • List of Countries
  • For 7 days
  • Water Temperature
  • Satellite Maps
  • Weather Map
  • Weather Widgets
  • user-avatar
    Login

    Hourly Weather Ghent

    Today, 27 May, Monday

    Time Temperature Precipitation Wind Pressure Humidity
    00:00 +14°C° 0 mm 4 mps 757 mmHg 94%
    01:00 +14°C° 0 mm 3 mps 757 mmHg 93%
    02:00 +13°C° 0 mm 3 mps 757 mmHg 93%
    03:00 +14°C° 0 mm 2 mps 756 mmHg 93%
    04:00 +14°C° 0 mm 2 mps 757 mmHg 89%
    05:00 +14°C° 0 mm 2 mps 757 mmHg 85%
    06:00 +15°C° 0 mm 2 mps 757 mmHg 81%
    07:00 +16°C° 0 mm 2 mps 757 mmHg 73%
    08:00 +17°C° 0 mm 3 mps 757 mmHg 65%
    09:00 +18°C° 0 mm 3 mps 757 mmHg 57%
    10:00 +18°C° 0 mm 3 mps 757 mmHg 56%
    11:00 +18°C° 0 mm 4 mps 757 mmHg 55%
    12:00 +19°C° 0 mm 4 mps 756 mmHg 54%
    13:00 +19°C° 0.1 mm 4 mps 756 mmHg 56%
    14:00 +19°C° 0.1 mm 5 mps 756 mmHg 57%
    15:00 +19°C° 0.1 mm 5 mps 756 mmHg 58%
    16:00 +17°C° 0 mm 5 mps 756 mmHg 62%
    17:00 +17°C° 0 mm 4 mps 755 mmHg 65%
    18:00 +17°C° 0 mm 4 mps 755 mmHg 68%
    19:00 +15°C° 0.1 mm 4 mps 755 mmHg 74%
    20:00 +13°C° 0.1 mm 4 mps 755 mmHg 79%
    21:00 +12°C° 0.1 mm 4 mps 755 mmHg 85%
    22:00 +12°C° 0.1 mm 3 mps 755 mmHg 86%
    23:00 +12°C° 0.1 mm 3 mps 755 mmHg 87%

    Tomorrow, 28 May, Tuesday

    Time Temperature Precipitation Wind Pressure Humidity
    00:00 +11°C° 0.1 mm 3 mps 755 mmHg 88%
    01:00 +11°C° 0 mm 3 mps 755 mmHg 88%
    02:00 +11°C° 0 mm 3 mps 754 mmHg 88%
    03:00 +11°C° 0 mm 3 mps 754 mmHg 88%
    04:00 +11°C° 0.1 mm 3 mps 754 mmHg 87%
    05:00 +11°C° 0.1 mm 3 mps 754 mmHg 85%
    06:00 +12°C° 0.1 mm 3 mps 754 mmHg 84%
    07:00 +13°C° 0.4 mm 4 mps 755 mmHg 81%
    08:00 +13°C° 0.4 mm 4 mps 755 mmHg 77%
    09:00 +14°C° 0.4 mm 4 mps 755 mmHg 73%
    10:00 +15°C° 1.1 mm 5 mps 756 mmHg 71%
    11:00 +15°C° 1.1 mm 5 mps 756 mmHg 70%
    12:00 +16°C° 1.1 mm 5 mps 756 mmHg 68%
    13:00 +16°C° 0.6 mm 5 mps 757 mmHg 65%
    14:00 +16°C° 0.6 mm 6 mps 757 mmHg 63%
    15:00 +16°C° 0.6 mm 6 mps 758 mmHg 60%
    16:00 +15°C° 0 mm 5 mps 758 mmHg 61%
    17:00 +15°C° 0 mm 5 mps 759 mmHg 63%
    18:00 +14°C° 0 mm 5 mps 759 mmHg 64%
    19:00 +13°C° 0 mm 4 mps 760 mmHg 65%
    20:00 +11°C° 0 mm 3 mps 761 mmHg 67%
    21:00 +10°C° 0 mm 3 mps 761 mmHg 68%
    22:00 +9°C° 0 mm 2 mps 762 mmHg 70%
    23:00 +9°C° 0 mm 2 mps 762 mmHg 71%

    Day after tomorrow, 29 May, Wednesday

    Time Temperature Precipitation Wind Pressure Humidity
    00:00 +8°C° 0 mm 2 mps 762 mmHg 72%
    01:00 +8°C° 0 mm 2 mps 762 mmHg 75%
    02:00 +7°C° 0 mm 2 mps 763 mmHg 79%
    03:00 +8°C° 0 mm 1 mps 763 mmHg 82%
    04:00 +8°C° 0 mm 2 mps 763 mmHg 80%
    05:00 +9°C° 0 mm 2 mps 763 mmHg 78%
    06:00 +10°C° 0 mm 3 mps 763 mmHg 77%
    07:00 +12°C° 0 mm 3 mps 763 mmHg 72%
    08:00 +13°C° 0 mm 3 mps 763 mmHg 67%
    09:00 +15°C° 0 mm 4 mps 763 mmHg 63%
    10:00 +17°C° 0.1 mm 4 mps 763 mmHg 61%
    11:00 +18°C° 0.1 mm 4 mps 762 mmHg 59%
    12:00 +19°C° 0.1 mm 5 mps 762 mmHg 57%
    13:00 +17°C° 0.4 mm 5 mps 762 mmHg 61%
    14:00 +17°C° 0.4 mm 5 mps 762 mmHg 65%
    15:00 +17°C° 0.4 mm 4 mps 762 mmHg 68%
    16:00 +17°C° 0 mm 4 mps 761 mmHg 69%
    17:00 +15°C° 0 mm 4 mps 761 mmHg 70%
    18:00 +14°C° 0 mm 4 mps 761 mmHg 71%
    19:00 +13°C° 0 mm 4 mps 761 mmHg 76%
    20:00 +12°C° 0 mm 4 mps 762 mmHg 80%
    21:00 +11°C° 0 mm 3 mps 762 mmHg 84%
    22:00 +11°C° 0 mm 3 mps 762 mmHg 87%
    23:00 +12°C° 0 mm 3 mps 762 mmHg 90%

    30 May, Thursday

    Time Temperature Precipitation Wind Pressure Humidity
    00:00 +12°C° 0 mm 3 mps 762 mmHg 93%
    01:00 +12°C° 0 mm 3 mps 762 mmHg 94%
    02:00 +12°C° 0 mm 3 mps 762 mmHg 96%
    03:00 +12°C° 0 mm 3 mps 762 mmHg 97%
    04:00 +12°C° 0 mm 3 mps 762 mmHg 95%
    05:00 +13°C° 0 mm 4 mps 762 mmHg 93%
    06:00 +14°C° 0 mm 4 mps 762 mmHg 91%
    07:00 +15°C° 0 mm 4 mps 762 mmHg 89%
    08:00 +15°C° 0 mm 4 mps 763 mmHg 86%
    09:00 +16°C° 0 mm 5 mps 763 mmHg 83%
    10:00 +16°C° 0 mm 5 mps 763 mmHg 81%
    11:00 +17°C° 0 mm 5 mps 764 mmHg 80%
    12:00 +19°C° 0 mm 5 mps 764 mmHg 78%
    13:00 +19°C° 0.1 mm 5 mps 764 mmHg 78%
    14:00 +19°C° 0.1 mm 5 mps 764 mmHg 78%
    15:00 +19°C° 0.1 mm 5 mps 764 mmHg 79%
    16:00 +19°C° 0 mm 5 mps 764 mmHg 79%
    17:00 +19°C° 0 mm 5 mps 764 mmHg 79%
    18:00 +17°C° 0 mm 5 mps 764 mmHg 79%
    19:00 +17°C° 0 mm 5 mps 765 mmHg 81%
    20:00 +16°C° 0 mm 5 mps 765 mmHg 83%
    21:00 +15°C° 0 mm 5 mps 765 mmHg 85%
    22:00 +15°C° 0 mm 5 mps 765 mmHg 86%
    23:00 +14°C° 0 mm 5 mps 766 mmHg 87%

    31 May, Friday

    Time Temperature Precipitation Wind Pressure Humidity
    00:00 +14°C° 0 mm 5 mps 766 mmHg 87%
    01:00 +14°C° 0 mm 5 mps 766 mmHg 88%
    02:00 +14°C° 0 mm 4 mps 766 mmHg 89%
    03:00 +14°C° 0 mm 4 mps 766 mmHg 89%
    04:00 +14°C° 0 mm 4 mps 766 mmHg 89%
    05:00 +14°C° 0 mm 4 mps 766 mmHg 88%
    06:00 +15°C° 0 mm 4 mps 766 mmHg 88%
    07:00 +17°C° 0 mm 4 mps 767 mmHg 84%
    08:00 +18°C° 0 mm 4 mps 767 mmHg 80%
    09:00 +19°C° 0 mm 4 mps 767 mmHg 76%
    10:00 +19°C° 0.2 mm 4 mps 767 mmHg 76%
    11:00 +19°C° 0.2 mm 4 mps 767 mmHg 76%
    12:00 +19°C° 0.2 mm 4 mps 767 mmHg 76%
    13:00 +20°C° 0.1 mm 4 mps 767 mmHg 74%
    14:00 +20°C° 0.1 mm 4 mps 767 mmHg 71%
    15:00 +21°C° 0.1 mm 4 mps 767 mmHg 68%
    16:00 +20°C° 0.1 mm 4 mps 767 mmHg 71%
    17:00 +20°C° 0.1 mm 3 mps 767 mmHg 73%
    18:00 +19°C° 0.1 mm 3 mps 767 mmHg 76%
    19:00 +18°C° 0 mm 2 mps 768 mmHg 80%
    20:00 +16°C° 0 mm 1 mps 768 mmHg 85%
    21:00 +15°C° 0 mm 1 mps 768 mmHg 90%
    22:00 +14°C° 0 mm 1 mps 768 mmHg 91%
    23:00 +14°C° 0 mm 1 mps 768 mmHg 92%

    1 June, Saturday

    Time Temperature Precipitation Wind Pressure Humidity
    00:00 +14°C° 0 mm 1 mps 768 mmHg 93%
    01:00 +14°C° 0 mm 2 mps 768 mmHg 93%
    02:00 +13°C° 0 mm 2 mps 768 mmHg 94%
    03:00 +13°C° 0 mm 2 mps 768 mmHg 95%
    04:00 +14°C° 0 mm 2 mps 767 mmHg 92%
    05:00 +14°C° 0 mm 3 mps 767 mmHg 90%
    06:00 +14°C° 0 mm 3 mps 767 mmHg 87%
    07:00 +17°C° 0 mm 3 mps 767 mmHg 82%
    08:00 +19°C° 0 mm 3 mps 767 mmHg 76%
    09:00 +20°C° 0 mm 3 mps 767 mmHg 71%
    10:00 +21°C° 0 mm 4 mps 767 mmHg 68%
    11:00 +22°C° 0 mm 4 mps 767 mmHg 65%
    12:00 +23°C° 0 mm 4 mps 767 mmHg 61%
    13:00 +23°C° 0.1 mm 4 mps 766 mmHg 62%
    14:00 +23°C° 0.1 mm 4 mps 766 mmHg 63%
    15:00 +23°C° 0.1 mm 4 mps 766 mmHg 64%
    16:00 +22°C° 0 mm 4 mps 766 mmHg 67%
    17:00 +22°C° 0 mm 3 mps 765 mmHg 70%
    18:00 +21°C° 0 mm 3 mps 765 mmHg 73%
    19:00 +20°C° 0 mm 3 mps 766 mmHg 78%
    20:00 +18°C° 0 mm 3 mps 766 mmHg 84%
    21:00 +17°C° 0 mm 3 mps 766 mmHg 89%
    22:00 +16°C° 0 mm 3 mps 766 mmHg 90%
    23:00 +15°C° 0 mm 2 mps 766 mmHg 92%
    Show more